Vertical_Velocity
1 -0 -12 14 2 1 0 -3 -1 -1 7 2 -3 -5 -5 2 3 2 2 2 2 1 -2 -2 -0 2 4 3 1 -1 -1 2 0 -2 0 0 -1 -3 -3 -4 -3 -4 1 -3
-1 -12 8 3 2 4 4 1 -8 -7 6 9 -3 -8 -0 -3 -5 1 3 2 3 2 1 2 1 1 1 2 2 1 0 3 1 0 -0 -1 -2 -1 -1 -0 -4 -8 -5 -4
1 0 -3 0 3 3 -0 3 -5 2 1 1 -0 -15 -10 -2 -0 -4 -6 -1 1 -4 -1 0 1 3 2 0 2 2 1 -1 0 -1 -4 -7 -3 0 -5 -2 1 0 -6 -6
5 2 -5 4 -1 -1 7 -1 4 2 5 -6 2 -16 -11 -9 -3 1 1 2 5 4 4 4 4 5 3 4 4 6 -0 -2 -2 -2 3 3 1 -0 4 1 4 1 2 -2
-2 -0 0 2 -4 14 -3 -0 3 8 1 6 9 -1 -1 -2 -6 -3 -1 4 7 8 6 4 3 4 3 2 6 1 -2 -2 3 7 5 4 1 -2 -7 -0 -4 -4 -0 -2
8 -1 -1 1 -1 1 5 5 -0 3 7 5 4 -3 -40 -7 -4 -1 1 -1 1 4 5 6 1 -0 2 2 -0 1 -5 -4 3 3 -0 0 -1 -4 -0 -1 2 -4 -3 -5
10 3 5 4 0 4 3 3 -0 2 3 -9 -5 10 -26 7 -3 -4 -3 -5 -2 -2 2 -0 -3 2 1 2 3 5 8 0 -4 -4 -2 0 1 3 -4 -5 -4 -3 0 -1
2 -10 2 6 -13 -4 2 -0 -6 -5 -3 -4 6 -4 -13 -6 -2 -0 -2 -9 -1 -1 5 4 8 5 0 4 1 0 -1 -1 -8 -5 -1 -5 -2 -6 5 -0 -2 -3 -7 -3
-3 -5 1 -2 1 13 -11 -1 7 11 4 -0 -3 -1 -4 -2 -4 -8 -4 -2 0 -2 1 3 5 3 2 -0 0 -0 -4 -6 -7 -5 -0 2 -3 -5 2 1 -3 -2 -4 -2
5 -6 2 0 4 4 -3 9 8 7 1 0 -0 -1 -6 -4 1 -3 -1 0 3 2 3 0 -1 2 3 3 1 -1 5 -3 -3 -1 5 3 1 2 4 -5 1 -3 -4 -2
4 5 0 4 4 2 3 -1 -0 6 8 -1 -1 -13 -1 3 8 1 -1 0 2 -4 0 1 0 -2 -0 -4 -3 4 2 2 -2 -7 -4 2 1 -8 -7 -8 4 -0 -2 -3
7 0 0 -4 -9 1 2 5 6 13 -6 1 1 -11 2 10 1 6 7 -3 -4 4 -2 0 5 3 5 4 3 4 2 -1 1 4 4 -2 -1 0 2 -1 4 -2 -3 -5
3 -0 -3 6 7 7 4 4 5 1 1 3 1 -1 8 6 5 1 -9 2 3 11 9 2 -1 10 7 1 -2 4 1 2 -1 5 -2 4 -5 1 3 -1 -1 2 3 -4
8 -4 -5 1 2 -5 -9 -6 3 2 1 1 -1 -7 2 6 5 -5 -6 -2 -1 -8 -3 3 5 2 8 4 7 9 -9 2 -1 4 4 1 1 -2 1 -2 1 1 -1 -1
-2 -7 4 4 16 0 -7 -5 1 -7 -4 4 -14 -17 -11 -8 4 -26 -24 -18 -20 -18 -15 -11 -0 -0 9 2 0 6 5 7 -1 -4 9 0 -4 -3 -1 1 1 0 -1 -0
-10 -22 7 -13 -7 6 -0 -12 5 0 -8 4 -3 -33 8 -12 17 -6 -6 -5 -6 -1 11 11 8 0 6 3 1 7 3 5 -2 4 -2 2 -3 2 1 0 -1 -1 0 -0
4 -4 5 -17 4 4 1 -8 -6 -3 8 10 -9 -21 11 1 7 -2 -7 6 4 1 -4 -6 -5 -3 -1 -0 9 4 1 4 4 0 3 -0 1 1 -0 0 2 0 -0 -1
-2 2 14 -6 1 3 -6 4 2 -1 3 2 8 0 4 4 -5 1 4 -2 5 -0 0 -1 -3 -3 2 2 -1 -3 4 5 12 -1 -1 -0 1 -2 0 2 1 -1 -1 -0
0 4 2 5 1 -9 -29 -6 3 15 -13 1 -2 -12 2 2 -2 -4 -5 2 6 0 -3 1 1 1 -0 -4 -4 1 6 11 8 5 3 -1 -2 -1 1 -0 -1 -1 -1 1
8 6 9 7 1 -2 -28 8 2 1 -28 2 -10 -7 0 -2 -2 7 3 2 2 0 -2 2 -0 -3 -3 0 2 5 1 18 3 4 -2 -1 -3 -1 -0 1 0 -1 -0 -0
-1 3 -8 7 -2 -21 -2 2 8 10 -55 -5 2 -1 -5 -5 -3 -0 1 -1 -1 3 3 1 0 1 3 4 3 -0 2 5 2 2 -1 -2 -1 0 2 1 1 -1 -1 -0
-5 -3 -4 8 6 -15 4 3 -6 8 3 8 2 2 -6 -4 -4 -1 1 -3 -0 -0 -1 -1 -0 0 5 3 1 2 0 -0 -1 -0 -2 -1 1 1 1 1 -1 -1 0 0
-2 -17 -11 -7 -18 -7 -4 -2 -3 -0 6 3 -3 7 3 3 3 -2 -0 0 1 -1 1 -1 1 4 1 0 2 1 0 -1 0 -0 -0 1 1 0 1 1 0 1 1 2
-3 -1 -10 7 1 -9 5 -1 -1 3 -2 -3 2 1 0 2 5 3 0 1 0 -1 -0 1 0 -1 -1 1 3 1 1 1 1 1 0 1 -0 0 1 0 0 0 1 2
3 5 1 -15 -4 -5 4 -1 11 -2 -1 -0 -5 -2 3 8 2 4 3 -0 -1 -2 -0 1 -1 0 0 1 2 1 1 2 1 1 1 1 1 1 1 0 1 2 2 0
-5 -2 -12 -31 25 -10 10 3 3 1 1 -4 -3 -3 2 -1 2 1 1 -1 1 0 0 -0 -0 -0 1 -0 -1 1 1 1 1 1 1 2 0 0 -0 2 2 3 2 2
Height
3099 3100 3099 3103 3105 3104 3105 3107 3107 3106 3106 3103 3102 3101 3103 3103 3103 3104 3107 3109 3112 3116 3117 3118 3118 3118 3117 3117 3115 3114 3113 3112 3112 3111 3109 3107 3105 3105 3103 3103 3101 3100 3097 3095
3094 3090 3098 3098 3099 3100 3099 3099 3100 3102 3104 3100 3098 3095 3096 3097 3098 3099 3100 3101 3104 3106 3108 3110 3111 3111 3111 3110 3109 3107 3106 3107 3106 3104 3103 3103 3102 3101 3100 3097 3096 3094 3093 3090
3086 3087 3091 3092 3091 3093 3094 3093 3095 3097 3099 3096 3094 3085 3088 3091 3091 3092 3093 3096 3097 3097 3100 3101 3102 3102 3102 3102 3102 3101 3101 3101 3100 3099 3098 3098 3096 3095 3095 3094 3092 3088 3086 3085
3078 3079 3082 3085 3085 3089 3086 3091 3092 3094 3095 3093 3093 3079 3076 3080 3083 3084 3086 3086 3088 3091 3091 3092 3092 3092 3093 3094 3094 3094 3094 3095 3094 3094 3093 3092 3092 3091 3090 3088 3088 3085 3081 3078
3069 3073 3077 3077 3078 3085 3080 3086 3087 3089 3089 3089 3086 3090 3067 3072 3073 3078 3079 3080 3081 3082 3081 3082 3083 3085 3086 3087 3087 3087 3089 3090 3089 3088 3087 3087 3087 3087 3085 3084 3081 3080 3076 3072
3063 3066 3071 3073 3075 3077 3079 3081 3081 3082 3083 3080 3078 3085 3054 3066 3066 3069 3073 3073 3074 3074 3074 3074 3075 3077 3079 3081 3083 3083 3083 3084 3084 3083 3083 3083 3081 3080 3079 3078 3076 3073 3071 3068
3062 3055 3061 3068 3070 3073 3075 3078 3079 3078 3078 3068 3071 3075 3058 3061 3062 3064 3067 3068 3067 3069 3069 3067 3068 3071 3074 3077 3078 3079 3077 3077 3079 3080 3079 3078 3077 3076 3073 3072 3071 3068 3065 3062
3058 3052 3052 3054 3056 3059 3066 3071 3067 3068 3068 3062 3064 3059 3054 3057 3059 3059 3060 3062 3063 3064 3066 3064 3064 3066 3069 3073 3074 3074 3074 3073 3074 3076 3073 3073 3072 3072 3069 3066 3066 3061 3060 3057
3055 3049 3047 3050 3052 3056 3056 3057 3063 3063 3059 3059 3054 3051 3050 3051 3054 3054 3057 3057 3058 3058 3061 3061 3063 3064 3066 3069 3069 3068 3068 3067 3068 3068 3067 3065 3064 3063 3062 3060 3059 3056 3054 3050
3047 3046 3045 3046 3049 3049 3049 3054 3054 3056 3058 3055 3044 3043 3042 3046 3051 3049 3052 3053 3053 3053 3055 3056 3059 3062 3063 3064 3064 3065 3063 3060 3062 3061 3061 3060 3059 3058 3055 3055 3053 3050 3047 3045
3040 3044 3041 3041 3044 3044 3045 3044 3049 3047 3050 3045 3043 3042 3041 3044 3047 3048 3048 3050 3050 3052 3054 3055 3056 3058 3059 3059 3061 3061 3058 3058 3055 3056 3054 3052 3051 3051 3048 3048 3046 3043 3041 3039
3034 3034 3036 3038 3040 3043 3045 3041 3040 3041 3041 3041 3039 3040 3039 3043 3045 3045 3045 3045 3048 3051 3051 3052 3053 3052 3054 3054 3054 3055 3052 3052 3050 3049 3047 3045 3044 3043 3041 3041 3040 3038 3035 3034
3033 3033 3033 3033 3038 3037 3039 3037 3037 3036 3035 3035 3037 3034 3035 3035 3037 3039 3040 3041 3043 3047 3047 3048 3048 3048 3048 3048 3048 3047 3047 3046 3044 3043 3041 3041 3038 3038 3036 3036 3034 3032 3031 3029
3032 3031 3035 3033 3034 3036 3035 3036 3035 3036 3035 3033 3033 3030 3031 3031 3031 3032 3033 3036 3038 3040 3041 3041 3041 3042 3042 3042 3041 3041 3041 3038 3037 3037 3036 3033 3032 3032 3032 3030 3030 3028 3025 3023
3035 3031 3033 3033 3033 3032 3031 3030 3033 3032 3032 3032 3031 3030 3026 3029 3027 3025 3028 3031 3032 3035 3035 3035 3036 3036 3036 3036 3035 3035 3033 3032 3031 3030 3029 3028 3027 3027 3026 3025 3024 3022 3020 3018
3031 3027 3028 3026 3027 3028 3027 3026 3026 3027 3025 3023 3024 3021 3021 3020 3022 3020 3021 3022 3023 3026 3028 3028 3029 3028 3027 3028 3028 3027 3027 3025 3025 3024 3023 3022 3021 3020 3019 3019 3018 3016 3015 3014
3026 3026 3024 3021 3023 3022 3021 3017 3019 3018 3016 3019 3017 3016 3018 3018 3015 3015 3017 3020 3020 3019 3020 3022 3022 3022 3021 3021 3021 3020 3020 3020 3017 3017 3017 3016 3015 3013 3013 3013 3012 3011 3010 3008
3019 3021 3022 3019 3019 3017 3014 3011 3012 3013 3012 3013 3011 3012 3013 3012 3011 3009 3011 3013 3013 3011 3013 3013 3014 3015 3014 3014 3012 3012 3013 3011 3010 3009 3010 3010 3009 3008 3008 3008 3007 3005 3004 3003
3014 3016 3017 3016 3014 3012 3009 3008 3009 3007 3007 3008 3008 3009 3008 3006 3004 3004 3004 3005 3005 3005 3006 3007 3007 3008 3006 3005 3004 3004 3004 3004 3004 3003 3005 3004 3004 3003 3003 3002 3002 3001 3000 3000
3006 3009 3012 3011 3010 3010 2996 3001 3001 3001 3000 3000 3000 3001 3000 2999 3000 3000 2998 2999 2999 2999 3000 2999 2998 2998 2997 2997 2996 2997 2997 2997 2997 2997 2999 2999 2998 2997 2997 2997 2996 2996 2996 2996
2999 3000 3001 3002 3003 2998 2993 2997 2997 2998 2994 2993 2993 2992 2993 2993 2994 2993 2993 2992 2992 2992 2991 2990 2990 2990 2990 2989 2988 2988 2990 2991 2991 2992 2993 2993 2992 2992 2991 2992 2992 2992 2992 2993
2993 2995 2994 2997 2998 2994 2990 2991 2992 2991 2989 2990 2989 2989 2988 2988 2987 2986 2985 2984 2983 2983 2982 2981 2981 2981 2981 2980 2982 2982 2983 2984 2985 2986 2987 2986 2986 2986 2986 2987 2987 2988 2989 2989
2986 2986 2987 2989 2986 2986 2984 2984 2985 2985 2984 2985 2983 2982 2980 2978 2978 2977 2975 2975 2974 2974 2973 2973 2973 2973 2973 2974 2976 2977 2977 2978 2979 2980 2980 2979 2979 2980 2981 2982 2983 2984 2985 2986
2978 2980 2980 2983 2977 2979 2980 2980 2979 2979 2977 2976 2975 2972 2971 2970 2969 2967 2967 2967 2967 2966 2966 2965 2965 2965 2966 2967 2970 2971 2971 2972 2972 2972 2972 2972 2973 2974 2975 2977 2979 2980 2982 2983
2972 2972 2972 2971 2970 2974 2973 2975 2973 2971 2970 2968 2966 2964 2962 2961 2961 2961 2961 2961 2960 2960 2959 2959 2958 2959 2960 2961 2963 2964 2965 2965 2965 2965 2965 2966 2967 2969 2970 2973 2975 2977 2978 2979
2960 2961 2964 2961 2966 2968 2966 2967 2965 2963 2965 2962 2960 2959 2958 2957 2956 2956 2956 2955 2955 2954 2953 2953 2954 2954 2955 2956 2957 2957 2957 2957 2957 2958 2959 2961 2962 2964 2966 2969 2971 2973 2974 2974